[Date Prev][Date Next][Thread Prev][Thread Next] - [Date Index][Thread Index][Author Index]
2 Line ISS Keps 10-12
- Subject: [sarex] 2 Line ISS Keps 10-12
- From: "Dave Larsen PhD" <doc@xxxxxxxxxxx>
- Date: Tue, 11 Oct 2005 18:21:43 -0700
ISS
1 25544U 98067A 05284.97061343 .00025493 00000-0 17894-3 0 5320
2 25544 051.6455 022.6618 0002086 076.4233 258.9533 15.74006566394050
----
Via the sarex mailing list at AMSAT.ORG courtesy of AMSAT-NA.
To unsubscribe, send "unsubscribe sarex" to Majordomo@amsat.org
AMSAT Home